Back to catalog

RELAY 2

AliveCommunicationsHEO
NORAD 737·PAYLOAD·🇺🇸 United States

Launched Jan 21, 1964 from Cape Canaveral Space Force Station

Loading…

Next Passes (next 24 hours)

TLE

FreshSource: Space-Track

Epoch: Sep 14, 2026, 09:20 UTC

1 00737U 64003A   26257.38950483 -.00000023  00000-0  00000-0 0  9998
2 00737  46.4498 245.1817 2597685 121.1810 266.9383  7.39530267692699

Track RELAY 2 in real time with AllMySat

Download on the App Store